Battle Creek, MI

2:04 PM EDT on June 22, 2018 (GMT -0400)
Kellogg

Weather History for KBTL - September, 2017

Change the Weather History Date:

Thursday, September 14, 2017

  Actual Average Record
Temperature  
Mean Temperature 67 °F 62 °F  
Max Temperature 80 °F 74 °F 84 °F (2002)
Min Temperature 54 °F 51 °F 39 °F (2001)
Degree Days  
Heating Degree Days 0 4  
Month to date heating degree days 63 40  
Since 1 July heating degree days 83 81  
Cooling Degree Days 2 2  
Month to date cooling degree days 10 38  
Year to date cooling degree days 597 556  
Growing Degree Days 16 (Base 50)    
Moisture  
Dew Point 57 °F    
Average Humidity 73    
Maximum Humidity 100    
Minimum Humidity 45    
Precipitation  
Precipitation 0.00 in 0.12 in 3.29 in (2008)
Month to date precipitation 0.22 1.66  
Year to date precipitation 21.82 23.20  
Sea Level Pressure  
Sea Level Pressure 29.89 in    
Wind  
Wind Speed 3 mph (SSW)    
Max Wind Speed 8 mph    
Max Gust Speed 14 mph    
Visibility 5 miles    
Events Fog    
T = Trace of Precipitation, MM = Missing Value Source: NWS Daily Summary

Daily Weather History Graph

Daily Weather History Graph

Search for Another Location

Airport or City:

Astronomy

Sep. 14, 2017 Rise Set
Actual Time 7:20 AM EDT 7:51 PM EDT
Civil Twilight 6:51 AM EDT 8:20 PM EDT
Nautical Twilight 6:18 AM EDT 8:53 PM EDT
Astronomical Twilight 5:44 AM EDT 9:27 PM EDT
Moon 1:11 AM EDT (9/14) 4:13 PM EDT (9/14)
Length of Visible Light 13h 28m
Length of Day
12h 31m
Waning Crescent, 34% of the Moon is Illuminated
Sep 14
Waning Crescent
Sep 20
New
Sep 27
First Quarter
Oct 5
Full
Oct 12
Last Quarter

Hourly Weather History & Observations

Time (EDT) Temp. Dew Point Humidity Pressure Visibility Wind Dir Wind Speed Gust Speed Precip Events Conditions
12:53 AM 55.9 °F 55.9 °F 100% 29.83 in 8.0 mi Calm Calm - N/A   Clear
1:53 AM 55.9 °F 55.9 °F 100% 29.83 in 5.0 mi SSE 4.6 mph - N/A   Clear
2:39 AM 55.0 °F 55.0 °F 100% 29.83 in 5.0 mi NNW 3.5 mph - N/A   Scattered Clouds
2:42 AM 55.0 °F 55.0 °F 100% 29.84 in 2.5 mi NNW 4.6 mph - N/A   Mostly Cloudy
2:50 AM 53.6 °F 53.6 °F 100% 29.84 in 0.8 mi Calm Calm - N/A   Mist
2:53 AM 55.0 °F 55.0 °F 100% 29.83 in 0.5 mi Calm Calm - N/A Fog Fog
2:58 AM 55.9 °F 55.9 °F 100% 29.84 in 0.2 mi Calm Calm - N/A Fog Fog
3:16 AM 55.9 °F 55.9 °F 100% 29.84 in 0.2 mi Calm Calm - N/A Fog Fog
3:34 AM 55.9 °F 55.9 °F 100% 29.84 in 0.2 mi South 3.5 mph - N/A Fog Fog
3:45 AM 55.9 °F 55.9 °F 100% 29.84 in 0.2 mi Calm Calm - N/A Fog Fog
3:53 AM 57.0 °F 57.0 °F 100% 29.84 in 0.2 mi Calm Calm - N/A Fog Fog
4:53 AM 57.0 °F 57.0 °F 100% 29.85 in 0.2 mi Calm Calm - N/A Fog Fog
4:59 AM 57.0 °F 57.0 °F 100% 29.85 in 0.2 mi Calm Calm - N/A Fog Fog
5:21 AM 57.0 °F 57.0 °F 100% 29.86 in 0.2 mi Calm Calm - N/A Fog Fog
5:27 AM 57.0 °F 57.0 °F 100% 29.86 in 0.5 mi Calm Calm - N/A Fog Fog
5:34 AM 57.0 °F 57.0 °F 100% 29.86 in 0.5 mi Calm Calm - N/A Fog Fog
5:41 AM 57.0 °F 57.0 °F 100% 29.87 in 0.2 mi South 3.5 mph - N/A Fog Fog
5:50 AM 55.4 °F 55.4 °F 100% 29.87 in 0.2 mi Calm Calm - N/A Fog Fog
5:53 AM 55.9 °F 55.9 °F 100% 29.86 in 0.2 mi South 3.5 mph - N/A Fog Fog
6:10 AM 55.9 °F 55.9 °F 100% 29.88 in 0.2 mi Calm Calm - N/A Fog Fog
6:22 AM 55.9 °F 55.9 °F 100% 29.88 in 0.2 mi SSE 3.5 mph - N/A Fog Fog
6:53 AM 55.9 °F 55.9 °F 100% 29.88 in 0.2 mi SW 3.5 mph - N/A Fog Fog
7:09 AM 55.9 °F 55.9 °F 100% 29.89 in 0.2 mi Calm Calm - N/A Fog Fog
7:19 AM 55.9 °F 55.9 °F 100% 29.89 in 0.2 mi Calm Calm - N/A Fog Fog
7:30 AM 55.9 °F 55.9 °F 100% 29.89 in 0.5 mi Calm Calm - N/A Fog Fog
7:36 AM 55.9 °F 55.9 °F 100% 29.89 in 1.5 mi Calm Calm - N/A   Overcast
7:49 AM 55.4 °F 55.4 °F 100% 29.90 in 3.0 mi Calm Calm - N/A   Overcast
7:53 AM 55.9 °F 55.9 °F 100% 29.89 in 4.0 mi Calm Calm - N/A   Overcast
8:53 AM 59.0 °F 57.9 °F 96% 29.91 in 8.0 mi Calm Calm - N/A   Overcast
9:53 AM 61.0 °F 60.1 °F 97% 29.93 in 9.0 mi Calm Calm - N/A   Overcast
10:53 AM 64.9 °F 61.0 °F 87% 29.94 in 10.0 mi South 4.6 mph - N/A   Overcast
11:53 AM 66.9 °F 60.1 °F 79% 29.94 in 10.0 mi SSW 3.5 mph - N/A   Mostly Cloudy
12:00 PM 66.9 °F 60.1 °F 79% 29.94 in 10.0 mi Calm Calm - N/A   Mostly Cloudy
12:53 PM 72.0 °F 60.1 °F 66% 29.93 in 10.0 mi Variable 5.8 mph - N/A   Mostly Cloudy
1:00 PM 72.0 °F 59.0 °F 64% 29.94 in 10.0 mi Variable 3.5 mph - N/A   Scattered Clouds
1:01 PM 71.1 °F 59.0 °F 66% 29.94 in 10.0 mi South 3.5 mph - N/A   Mostly Cloudy
1:02 PM 71.1 °F 59.0 °F 66% 29.94 in 10.0 mi Calm Calm - N/A   Mostly Cloudy
1:53 PM 75.0 °F 59.0 °F 57% 29.92 in 10.0 mi Variable 4.6 mph - N/A   Partly Cloudy
2:53 PM 75.9 °F 59.0 °F 56% 29.91 in 10.0 mi WNW 4.6 mph - N/A   Partly Cloudy
3:53 PM 79.0 °F 57.0 °F 47% 29.90 in 10.0 mi WSW 5.8 mph - N/A   Scattered Clouds
4:53 PM 79.0 °F 55.9 °F 45% 29.90 in 10.0 mi SSW 5.8 mph - N/A   Mostly Cloudy
5:53 PM 78.1 °F 57.0 °F 48% 29.91 in 10.0 mi SW 5.8 mph - N/A   Mostly Cloudy
6:53 PM 75.9 °F 57.9 °F 54% 29.92 in 10.0 mi SW 5.8 mph - N/A   Partly Cloudy
7:53 PM 71.1 °F 59.0 °F 66% 29.94 in 10.0 mi SSW 5.8 mph - N/A   Clear
8:53 PM 66.0 °F 61.0 °F 84% 29.96 in 10.0 mi Calm Calm - N/A   Clear
9:53 PM 64.9 °F 59.0 °F 81% 29.97 in 10.0 mi Calm Calm - N/A   Clear
10:53 PM 63.0 °F 59.0 °F 87% 29.98 in 10.0 mi South 3.5 mph - N/A   Clear
11:53 PM 63.0 °F 57.9 °F 84% 29.99 in 10.0 mi Calm Calm - N/A   Clear